DECAYED

CZ-6A DEB, 61470 (Decayed)

Orbit data source: Space-Track

CZ-6A DEB, 61470 was space debris in LEO originally from a launch on Tue, 06 Aug 2024 UTC launched from the Taiyaun Space Center, China (TSC). Debris objects in space refer to the collection of defunct objects orbiting the Earth. Examples of debris include non-operational satellites, rocket bodies, and fragments generated from explosions, collisions, or faulty payload assembly.

Not visible in the next 10 days
Identifier
61470, 2024-140AAC
Orbit
Decayed
Country
Flag of CNCN / PRC
Related business
Manufacturer
SAST
Mission
Decayed spacecraft
Bus & Motor
Unknown
Mass
Unknown
Launch date (UTC)
2024-08-06 (2 years ago)
Launch vehicle
Unknown
Launch site
Taiyaun Space Center, China (TSC)
Object type
Payload
Rocket body
Debris
Shape & HBR
Unknown shape, 0.1 m
Radar Cross Section
Medium (>0.1 m² and <1 m²)

Expand to show TLE details & history
Last TLE update: 1 year ago

TLE from 1 year ago
0 CZ-6A DEB
1 61470U 24140AAC 25083.17189075  .08221756  00000-0  31253-1 0  9991
2 61470  89.2444 330.3664 0022516 227.4813 132.4565 15.82910247 30052
Epoch: 2025-03-24T04:07Z
TLE epoch observation values (Epoch: 2025-03-24T04:07:31.360Z)
Latitude
-0.00011°
Longitude
86.59366°
Altitude
335.704 km
Speed
7.701 km/s
True Right ascension
22h 01m 27s
True Declination
0° 00' 00"
Sunlit
Object was in daylight at epoch
Visualization orbit readout
Latitude
Unknown
Longitude
Unknown
Altitude
Unknown
Speed
Unknown
Apparent Right ascension
Unknown
Apparent Declination
Unknown
Sunlit
N/A
Visualization observer readout
Local Sidereal Time
08:42:07
Azimuth
Unknown
Elevation
Unknown
Doppler factor
Unknown
Orbital elements
Apogee altitude
334.015 km
Perigee altitude
303.857 km
Semi-major axis
6,697.073 km
Eccentricity
0.00225
Inclination
89.2444°
RAAN
330.3664°
Arg. of periapsis
227.4813°
True anomaly
132.6465°
Mean anomaly
132.4565°
Eccentric anomaly
132.55154°
Mean motion
3.96019 °/min
Orbital period
90.9 mins
BSTAR
0.031253
Loading maneuver chart data...
Computing Atmospheric mass density...
Loading historical data...
Loading historical data...
Loading historical data...
Loading historical data...
Loading historical data...
Loading historical data...
Loading historical data...

Documentation

Showing up to 5 results
|